Billy Bishop Toronto City Centre Airport
CYTZ : now visible

Airfield :











YOU CAN JOIN US ON...

 
LOGIN :

Register | Disclaimer

   EN    FR    IT 

 









Legend :    VFR   Marginal VFR   IFR   Intensive IFR   Very Intensive IFR
Visi :
Ceiling :
>= 8 km
>= 3000ft
5 to 8 km
1000 to 3000 ft
1500m to 5 km
500 to 1000 ft
800 to 1500m
200 to 500 ft
< 800m
< 200 ft
Symbols :   Thunderstorms  Fog  Heavy snow  Heavy precipitations  Wind > 20 kt






- Airport Elevation : 251 ft
- IATA code : YTZ


CYTZ - Billy Bishop Toronto City Centre

CURRENT METAR :
  • 070900Z AUTO 06005KT 9SM BKN066 OVC076 08/M01 A2996 RMK SLP149

EXPIRED METARs :
  • 070800Z AUTO 03006KT 9SM OVC081 09/M02 A2996 RMK SLP150
  • 070700Z AUTO VRB03KT 9SM BKN100 BKN120 08/03 A2997 RMK SLP152

TAF TAF CYTZ
Valid from the 07 at 08:00 until the 08 at 08:00 UTC


070738Z 0708/0808 VRB03KT P6SM OVC080
TEMPO 0708/0716 P6SM -SHRA
FM071600 14008KT P6SM BKN040
FM072100 15008KT P6SM SCT040
BECMG 0722/0724 VRB03KT
BECMG 0804/0806 35005KT RMK FCST BASED ON AUTO OBS. NXT FCST BY 071400Z
CZYZ FIR / North America



MET'MAP, your aeronautical weather chart ! - Copyright ORBIFLY December 2007 - Disclaimer

ORBIFLY MET'MAP TEAM :

Programming & Development : Alexandra Zaïnal
Concept & original design : Baudouin d'Aumeries
Assistance for programming : Marc-Olivier Méhu
Technical & hardware support : Manuel Goepfert

Contact : metmap@orbifly.com




SOURCES & CREDITS :

   NOAA       Earth
Advisory